"Pseudo-MPEC" for P1180zu

Created 2020 Oct 20 1:07:22 UT using Find_Orb

Click here for an explanation of pseudo-MPECs

 
 Astrometry: 
     P1180zu  C2020 10 15Fu5:D_Z]NsYvdYAstrometryhsZQuBh8x8hZgOmg$([HBo+JuX)qF51
     P1180zu  C2020 10 15v9pwkrLg:de,SEs\m``OubKkmuf%Y8u+rrPDy_c)kredacted;)?F51
     P1180zu  C2020 10 15RvY8%UTQFGLfM+X)[dUS:yR28pp^fy#?clickO61Tkf+kg22nqjwF51
     P1180zu ^C2020 10 19.58235303 15 34.053+19 07 09.17   ~AJJ7 21.34GVNEOCP568
     P1180zu ^C2020 10 19.58330003 15 33.987+19 07 09.07   ~AJJ7 21.32GVNEOCP568
     P1180zu ^C2020 10 19.58425803 15 33.917+19 07 09.04   ~AJJ7 21.41GVNEOCP568
     P1180zu KC2020 10 19R.,`#,8iDb_\O8_ngvYherevAy'ggmy5eC3=,?#/%px$X8`-PUPiL01
     P1180zu KC2020 10 19:qhu^/i7ET[2KgQOP1E(iW@O?q)tiY=]+,Xi;![`Ur[]$0gi/oXfL01
     P1180zu pC2020 10 196a+akforZPJw3U)EyyG49VPf7gj!T30#kQ9R6Twexplanationp*L01
     P1180zu KC2020 10 19nq1Qq0*rDD(N0@oTu#g`'X7tdMObxYF+OwV`\N^Vg6P6D:1fAC#;L01

Station data:
(568) Mauna Kea  (N19.826116 W155.472200)  US/Hawaii.
(F51) Pan-STARRS 1, Haleakala  (N20.707235 W156.255910)  US/Hawaii.
   Observers N. Primak, A. Schultz, S. Watters, J. Thiel, T. Goggia. Measurer
   PS1 Science Consortium. 1.8-m Ritchey-Chrétien + CCD.
(L01) Višnjan Observatory, Tičan  (N45.290900 E13.749300)  Croatia.
   Observers K. Korlević, E. Pettarin. Measurer E. Pettarin. 1.0-m f/2.9
   reflector + CCD.

Orbital elements:  P1180zu
   Perihelion 2020 May 23.198120 +/- 9.91 TT =  4:45:17 (JD 2458992.698120)
Epoch 2020 Oct 19.0 TT = JDT 2459141.5   Earth MOID: 0.4463   Ma: 0.0748
M  48.16046206 +/- 4.1              (J2000 ecliptic)          AutoNEOCP
n   0.32365493 +/- 0.0109           Peri.  286.23969 +/- 3.1
a   2.10094442 +/- 0.0473           Node    30.31713 +/- 0.6
e   0.3077032 +/- 0.0216            Incl.    3.48878 +/- 0.21
P   3.05                   H 20.0   G  0.15   U  9.7  
q 1.45447689 +/- 0.0212    Q 2.74741195 +/- 0.102
From 10 observations 2020 Oct. 15-19; mean residual 0".18
Residuals in arcseconds: 
201015 F51  .01+  .01+    201019 568  .01+  .04-    201019 L01  .30-  .04+    
201015 F51  .04+  .05+    201019 568  .01-  .00     201019 L01  .39-  .30-    
201015 F51  .05-  .05-    201019 L01  .46+  .23+    
201019 568  .01-  .00     201019 L01  .24+  .07+    

Ephemerides (geocentric):
Date (UTC) HH   RA              Dec         delta   r     elong  mag " sig PA
---- -- -- --  -------------   -----------  ------ ------ -----  --- ---- ---
2020 10 20 01  03 15 03.026   +19 06 42.03  .86863 1.8216 155.3 21.8 .422  84
2020 10 20 02  03 15 00.160   +19 06 39.42  .86861 1.8217 155.4 21.8 .475  82
2020 10 20 03  03 14 57.291   +19 06 36.79  .86860 1.8219 155.4 21.8 .529  80
2020 10 20 04  03 14 54.419   +19 06 34.15  .86859 1.8220 155.5 21.8 .584  79
2020 10 20 05  03 14 51.544   +19 06 31.49  .86858 1.8222 155.5 21.8 .641  78
2020 10 20 06  03 14 48.666   +19 06 28.81  .86857 1.8224 155.6 21.8 .698  77
2020 10 20 07  03 14 45.786   +19 06 26.12  .86856 1.8225 155.6 21.8 .757  76
2020 10 20 08  03 14 42.902   +19 06 23.41  .86855 1.8227 155.7 21.8 .816  75
2020 10 20 09  03 14 40.016   +19 06 20.69  .86854 1.8228 155.7 21.8 .876  74
2020 10 20 10  03 14 37.126   +19 06 17.95  .86854 1.8230 155.8 21.8 .937  74
2020 10 20 11  03 14 34.234   +19 06 15.20  .86853 1.8231 155.9 21.8 1.00  73
2020 10 20 12  03 14 31.339   +19 06 12.43  .86852 1.8233 155.9 21.8 1.06  73
2020 10 20 13  03 14 28.442   +19 06 09.65  .86851 1.8235 156.0 21.8 1.12  72
2020 10 20 14  03 14 25.541   +19 06 06.85  .86851 1.8236 156.0 21.8 1.19  72
2020 10 20 15  03 14 22.637   +19 06 04.03  .86850 1.8238 156.1 21.8 1.25  72
2020 10 20 16  03 14 19.731   +19 06 01.20  .86849 1.8239 156.1 21.8 1.32  71
2020 10 20 17  03 14 16.822   +19 05 58.35  .86849 1.8241 156.2 21.8 1.38  71
2020 10 20 18  03 14 13.910   +19 05 55.49  .86848 1.8243 156.2 21.8 1.45  71
2020 10 20 19  03 14 10.996   +19 05 52.61  .86848 1.8244 156.3 21.7 1.52  70
2020 10 20 20  03 14 08.078   +19 05 49.72  .86847 1.8246 156.3 21.7 1.59  70
2020 10 20 21  03 14 05.158   +19 05 46.81  .86847 1.8247 156.4 21.7 1.66  70
2020 10 20 22  03 14 02.236   +19 05 43.89  .86846 1.8249 156.4 21.7 1.73  70
2020 10 20 23  03 13 59.310   +19 05 40.95  .86846 1.8250 156.5 21.7 1.80  70
2020 10 21 00  03 13 56.382   +19 05 38.00  .86845 1.8252 156.5 21.7 1.87  69
2020 10 21 01  03 13 53.450   +19 05 35.03  .86845 1.8254 156.6 21.7 1.94  69
2020 10 21 02  03 13 50.517   +19 05 32.04  .86845 1.8255 156.6 21.7 2.01  69
2020 10 21 03  03 13 47.580   +19 05 29.04  .86845 1.8257 156.7 21.7 2.09  69
2020 10 21 04  03 13 44.641   +19 05 26.03  .86844 1.8258 156.7 21.7 2.16  69
2020 10 21 05  03 13 41.699   +19 05 23.00  .86844 1.8260 156.8 21.7 2.23  68
2020 10 21 06  03 13 38.755   +19 05 19.95  .86844 1.8262 156.9 21.7 2.31  68
2020 10 21 07  03 13 35.807   +19 05 16.89  .86844 1.8263 156.9 21.7 2.38  68
2020 10 21 08  03 13 32.858   +19 05 13.81  .86844 1.8265 157.0 21.7 2.46  68
2020 10 21 09  03 13 29.905   +19 05 10.72  .86844 1.8266 157.0 21.7 2.54  68
2020 10 21 10  03 13 26.950   +19 05 07.62  .86844 1.8268 157.1 21.7 2.62  68
2020 10 21 11  03 13 23.992   +19 05 04.49  .86844 1.8269 157.1 21.7 2.69  68
2020 10 21 12  03 13 21.032   +19 05 01.36  .86844 1.8271 157.2 21.7 2.77  68
2020 10 21 13  03 13 18.068   +19 04 58.20  .86844 1.8273 157.2 21.7 2.85  67
2020 10 21 14  03 13 15.103   +19 04 55.04  .86844 1.8274 157.3 21.7 2.93  67
2020 10 21 15  03 13 12.135   +19 04 51.85  .86845 1.8276 157.3 21.7 3.01  67
2020 10 21 16  03 13 09.164   +19 04 48.66  .86845 1.8277 157.4 21.7 3.10  67
2020 10 21 17  03 13 06.190   +19 04 45.44  .86845 1.8279 157.4 21.7 3.18  67
2020 10 21 18  03 13 03.214   +19 04 42.22  .86845 1.8281 157.5 21.7 3.26  67
2020 10 21 19  03 13 00.236   +19 04 38.97  .86846 1.8282 157.5 21.7 3.34  67
2020 10 21 20  03 12 57.254   +19 04 35.71  .86846 1.8284 157.6 21.7 3.43  67
2020 10 21 21  03 12 54.271   +19 04 32.44  .86847 1.8285 157.6 21.7 3.51  67
2020 10 21 22  03 12 51.285   +19 04 29.15  .86847 1.8287 157.7 21.7 3.60  67
2020 10 21 23  03 12 48.296   +19 04 25.85  .86848 1.8289 157.8 21.7 3.68  66
2020 10 22 00  03 12 45.305   +19 04 22.53  .86848 1.8290 157.8 21.7 3.77  66